"Pseudo-MPEC" for C3LQFT2

Created 2020 Oct 19 5:07:18 UT using Find_Orb

Click here for an explanation of pseudo-MPECs

 
 Astrometry: 
     C3LQFT2  C2020 10 07U[(fRVfn*qNOC0[31MT%]Z^viNqpNs`]Uh#axAstrometryi/)`]F51
     C3LQFT2  C2020 10 072^GmqYA8Xredacted;:vT]$S,S:j.(mI'7Xdwov[qD-Pe3BCMQ0vF51
     C3LQFT2  C2020 10 131(eXLM:@wA1U_b%6DvZQyHvE@M/9MD$_qQkNu^[dcKb__me8e340F52
     C3LQFT2  C2020 10 13S;@ITGmX-0-c8(?v=^9BFx'n=?Y*-D7I`#e.6LFYj8/i3m(Vn[7RF52
     C3LQFT2  C2020 10 17.39199004 25 23.81 +01 12 04.5    ~AHA7 20.00GVNEOCPG96
     C3LQFT2  C2020 10 17.39711304 25 28.92 +01 12 49.7    ~AHA7 20.18GVNEOCPG96
     C3LQFT2  C2020 10 17.40223004 25 34.04 +01 13 35.8    ~AHA7 20.89GVNEOCPG96
     C3LQFT2 KC2020 10 17.49301104 27 05.32 +01 27 04.8    ~AHC7 20.07GVNEOCPI52
     C3LQFT2 KC2020 10 17.49427404 27 06.60 +01 27 15.7    ~AHC7 19.90GVNEOCPI52
     C3LQFT2 KC2020 10 17.49679604 27 09.17 +01 27 38.5    ~AHC7 19.91GVNEOCPI52
     C3LQFT2 IC2020 10 181O]stg7[EWC[)I[=ms3#bFJEVrZn42%doC7je)%0`kCKL`?yMvtaL01
     C3LQFT2 bC2020 10 18PsAxaS#K#click!cm@FLP,Nu)S!DLqHkIWvBRt],R/c-LVMr\WXdL01
     C3LQFT2 bC2020 10 18,a=-_jaWlX;5x7BMu(Y^k@d!G6]XherenGd/KobfUD(J4[Vbk^u)L01
     C3LQFT2 bC2020 10 18);m*b)gtQhfor^:`c/IO5$Nr(SDL;idexplanation6rm+ewGHAyL01
     C3LQFT2 KC2020 10 18.39951804 44 38.32 +03 52 00.9    ~AIA7 20.59GVNEOCPI52
     C3LQFT2 KC2020 10 18.40134704 44 40.39 +03 52 19.5    ~AIA7 19.76GVNEOCPI52
     C3LQFT2 KC2020 10 18.40317704 44 42.51 +03 52 37.9    ~AIA7 20.06GVNEOCPI52
     C3LQFT2 KC2020 10 19.01674004 57 56.88 +05 40 31.8    ~AJ0q 19.8 GVNEOCPI93
     C3LQFT2 KC2020 10 19.01903804 57 59.81 +05 40 57.5    ~AJ0q 20.6 GVNEOCPI93
     C3LQFT2 KC2020 10 19.02148604 58 02.95 +05 41 24.6    ~AJ0q       VNEOCPI93

Station data:
(F51) Pan-STARRS 1, Haleakala  (N20.707235 W156.255910)  US/Hawaii.
   Observers N. Primak, A. Schultz, S. Watters, J. Thiel, T. Goggia. Measurer
   PS1 Science Consortium. 1.8-m Ritchey-Chrétien + CCD.
(F52) Pan-STARRS 2, Haleakala  (N20.707384 W156.255910)  US/Hawaii. 1.8-m
   Ritchey-Chrétien + CCD.
(G96) Mt. Lemmon Survey  (N32.442754 W110.788720)  US/Arizona.  Observers T.
   A. Pruyne, B. M. Africano, E. J. Christensen, G. A. Farneth, D. C. Fuls,
   A. R. Gibbs, A. D. Grauer, H. Gröller, J. A. Johnson, R. A. Kowalski, S.
   M. Larson, G. J. Leonard, D. Rankin, R. L. Seaman, F. C. Shelly. 1.5-m
   reflector + 10K CCD.
(I52) Steward Observatory, Mt. Lemmon Station  (N32.442547 W110.788920)
   US/Arizona.  Observers T. A. Pruyne, B. M. Africano, E. J. Christensen, G.
   A. Farneth, D. C. Fuls, A. R. Gibbs, A. D. Grauer, H. Gröller, J. A.
   Johnson, R. A. Kowalski, S. M. Larson, G. J. Leonard, D. Rankin, R. L.
   Seaman, F. C. Shelly. 1.0-m reflector + CCD.
(I93) St Pardon de Conques  (N44.558710 W0.203000)  France.  Observer F.
   Losse. 0.40-m f/3.7 reflector + CCD.
(L01) Višnjan Observatory, Tičan  (N45.290900 E13.749300)  Croatia.
   Observers K. Korlević, E. Pettarin. Measurer E. Pettarin. 1.0-m f/2.9
   reflector + CCD.

Orbital elements:  C3LQFT2
   Perihelion 2020 Nov 30.940934 +/- 0.0262 TT = 22:34:56 (JD 2459184.440934)
Epoch 2020 Oct 19.0 TT = JDT 2459141.5   Earth MOID: 0.0047   Ma: 0.0045
M 334.93894023 +/- 0.06             (J2000 ecliptic)          AutoNEOCP
n   0.58361701 +/- 0.00122          Peri.   46.53668 +/- 0.011
a   1.41813448 +/- 0.00198          Node    32.56965 +/- 0.0049
e   0.3503557 +/- 0.000988          Incl.    7.24100 +/- 0.016
P   1.69/616.83d           H 25.6   G  0.15   U  8.2  
q 0.92128285 +/- 0.000113    Q 1.91498612 +/- 0.0041
From 20 observations 2020 Oct. 7-19; mean residual 0".28
Residuals in arcseconds: 
201007 F51  .10-  .04+    201017 I52  .07-  .00     201018 I52  .61+  .15+    
201007 F51  .08+  .23-    201017 I52  .15-  .43-    201018 I52  .13-  .07+    
201013 F52  .05-  .15+    201017 I52  .12-  .26-    201018 I52  .14-  .24-    
201013 F52  .18+  .19+    201018 L01  .15+  .53-    201019 I93  .61+  .14-    
201017 G96  .20-  .07-    201018 L01  .10-  .45+    201019 I93  .06-  .10+    
201017 G96  .15-  .24-    201018 L01  .55-  .11+    201019 I93  .48-  .07+    
201017 G96  .11+  .52+    201018 L01  .54+  .08+    

Ephemerides (geocentric):
Date (UTC) HH   RA              Dec         delta   r     elong  mag " sig PA
---- -- -- --  -------------   -----------  ------ ------ -----  --- ---- ---
2020 10 19 05  05 02 10.738   +06 18 26.58  .03973 1.0215 129.0 20.5 .425 159
2020 10 19 06  05 03 08.369   +06 26 16.95  .03963 1.0213 128.8 20.5 .432 158
2020 10 19 07  05 04 06.330   +06 34 09.49  .03952 1.0211 128.6 20.5 .438 158
2020 10 19 08  05 05 04.622   +06 42 04.16  .03942 1.0209 128.4 20.5 .445 157
2020 10 19 09  05 06 03.247   +06 50 00.95  .03931 1.0208 128.3 20.5 .452 157
2020 10 19 10  05 07 02.205   +06 57 59.85  .03921 1.0206 128.1 20.5 .459 157
2020 10 19 11  05 08 01.496   +07 06 00.83  .03911 1.0204 127.9 20.5 .465 157
2020 10 19 12  05 09 01.122   +07 14 03.88  .03900 1.0202 127.7 20.5 .472 156
2020 10 19 13  05 10 01.083   +07 22 08.97  .03890 1.0201 127.5 20.5 .479 156
2020 10 19 14  05 11 01.380   +07 30 16.09  .03880 1.0199 127.3 20.5 .486 156
2020 10 19 15  05 12 02.013   +07 38 25.21  .03870 1.0197 127.1 20.5 .493 155
2020 10 19 16  05 13 02.983   +07 46 36.30  .03861 1.0195 126.9 20.5 .500 155
2020 10 19 17  05 14 04.291   +07 54 49.35  .03851 1.0194 126.7 20.5 .508 155
2020 10 19 18  05 15 05.937   +08 03 04.33  .03841 1.0192 126.5 20.5 .515 155
2020 10 19 19  05 16 07.922   +08 11 21.22  .03832 1.0190 126.3 20.5 .522 155
2020 10 19 20  05 17 10.245   +08 19 39.98  .03823 1.0188 126.1 20.5 .530 155
2020 10 19 21  05 18 12.908   +08 28 00.59  .03813 1.0187 125.9 20.5 .537 154
2020 10 19 22  05 19 15.909   +08 36 23.02  .03804 1.0185 125.7 20.5 .544 154
2020 10 19 23  05 20 19.251   +08 44 47.24  .03795 1.0183 125.5 20.5 .552 154
2020 10 20 00  05 21 22.932   +08 53 13.23  .03786 1.0181 125.3 20.5 .560 154
2020 10 20 01  05 22 26.954   +09 01 40.95  .03777 1.0180 125.1 20.5 .567 154
2020 10 20 02  05 23 31.315   +09 10 10.36  .03768 1.0178 124.9 20.5 .575 154
2020 10 20 03  05 24 36.016   +09 18 41.45  .03760 1.0176 124.7 20.5 .582 154
2020 10 20 04  05 25 41.057   +09 27 14.16  .03751 1.0174 124.5 20.5 .590 154
2020 10 20 05  05 26 46.438   +09 35 48.47  .03743 1.0173 124.3 20.5 .598 154
2020 10 20 06  05 27 52.159   +09 44 24.35  .03734 1.0171 124.1 20.5 .606 154
2020 10 20 07  05 28 58.219   +09 53 01.75  .03726 1.0169 123.8 20.5 .614 154
2020 10 20 08  05 30 04.618   +10 01 40.63  .03718 1.0168 123.6 20.5 .621 154
2020 10 20 09  05 31 11.356   +10 10 20.96  .03710 1.0166 123.4 20.5 .629 154
2020 10 20 10  05 32 18.432   +10 19 02.71  .03702 1.0164 123.2 20.5 .637 154
2020 10 20 11  05 33 25.846   +10 27 45.82  .03694 1.0162 123.0 20.5 .645 154
2020 10 20 12  05 34 33.597   +10 36 30.26  .03687 1.0161 122.8 20.5 .653 154
2020 10 20 13  05 35 41.684   +10 45 15.98  .03679 1.0159 122.5 20.5 .661 154
2020 10 20 14  05 36 50.108   +10 54 02.94  .03672 1.0157 122.3 20.5 .669 154
2020 10 20 15  05 37 58.866   +11 02 51.10  .03664 1.0155 122.1 20.5 .677 154
2020 10 20 16  05 39 07.958   +11 11 40.41  .03657 1.0154 121.9 20.5 .685 154
2020 10 20 17  05 40 17.384   +11 20 30.83  .03650 1.0152 121.6 20.5 .694 154
2020 10 20 18  05 41 27.142   +11 29 22.31  .03643 1.0150 121.4 20.5 .702 154
2020 10 20 19  05 42 37.231   +11 38 14.80  .03636 1.0149 121.2 20.5 .710 154
2020 10 20 20  05 43 47.649   +11 47 08.24  .03629 1.0147 120.9 20.5 .718 154
2020 10 20 21  05 44 58.397   +11 56 02.61  .03622 1.0145 120.7 20.5 .726 154
2020 10 20 22  05 46 09.472   +12 04 57.83  .03616 1.0143 120.5 20.5 .735 155
2020 10 20 23  05 47 20.873   +12 13 53.86  .03609 1.0142 120.2 20.5 .743 155
2020 10 21 00  05 48 32.598   +12 22 50.65  .03603 1.0140 120.0 20.5 .751 155
2020 10 21 01  05 49 44.646   +12 31 48.15  .03597 1.0138 119.8 20.5 .760 155
2020 10 21 02  05 50 57.015   +12 40 46.29  .03591 1.0137 119.5 20.5 .768 155
2020 10 21 03  05 52 09.704   +12 49 45.03  .03585 1.0135 119.3 20.5 .776 155
2020 10 21 04  05 53 22.710   +12 58 44.31  .03579 1.0133 119.0 20.5 .785 156